User: anonymous   Login
Location: Oronoko Observatory
(41.9167°N, 86.3833°W)
Time: 05:49:22
(UTC-05:00)
Language:

PAYLOAD A - Orbit

View from above orbital plane
View from above orbital plane
View from above satellite
View from above satellite

Ground track
Ground track

The orbit data is extracted from the following two-line orbital elements,

1 27840U 03031A   16040.66422661  .00000020  00000-0  19299-4 0  9998
2 27840  98.1992  53.8042 0098598 166.2451 306.4211 14.38842713662346
Epoch (UTC): 09 February 2016 15:56:29
Eccentricity: 0.0098598
inclination: 98.1992°
perigee height: 692 km
apogee height: 833 km
right ascension of ascending node: 53.8042°
argument of perigee: 166.2451°
revolutions per day: 14.38842713
mean anomaly at epoch: 306.4211°
orbit number at epoch: 66234

The dashed part of the orbit path shows where the satellite is in the earth's shadow,  

DLR